Regional Weather Roundup
Issued by NWS

Home | Current Version | Previous Version | Graphics & Text | Print | Product List | Glossary On
Versions: 1 2 3 4 5 6 7 8 9 10 11 12 13 14 15 16 17 18 19 20 21 22 23 24 25 26 27 28 29 30 31 32 33 34 35 36 37 38 39 40 41 42 43 44 45 46 47 48 49 50
760
ASUS45 KBOU 280607
RWRCO

WEATHER ROUNDUP FOR COLORADO
NATIONAL WEATHER SERVICE DENVER/BOULDER CO
1200 AM MDT SUN MAY 28 2017

NOTE: "FAIR" INDICATES FEW OR NO CLOUDS BELOW 12000 FEET WITH NO
SIGNIFICANT WEATHER AND/OR OBSTRUCTIONS TO VISIBILITY.

COZ001>005-013-030-031-280700-
...NORTHWEST COLORADO...

CITY           SKY/WX    TMP DP  RH WIND       PRES   REMARKS
CRAIG          FAIR      39  34  82 E3        30.31R
HAYDEN         FAIR      39  32  75 E9        30.32S
MEEKER         FAIR      37  32  82 NE7       30.31R
RABBIT EARS PA NOT AVBL
STEAMBOAT SPGS NOT AVBL
WALDEN         NOT AVBL
$$

COZ006>008-011-280700-
...WEST CENTRAL VALLEYS...

CITY           SKY/WX    TMP DP  RH WIND       PRES   REMARKS
GRAND JUNCTION FAIR      55  28  35 NE3       30.22R
MONTROSE       FAIR      47  31  53 SE5       30.28R
EAGLE          FAIR      39  34  82 CALM      30.37R
RIFLE          FAIR      45  30  55 SE7       30.29R
DELTA          FAIR      57  26  30 NE8       30.25R
NUCLA          FAIR      54  23  30 E3        30.29R
$$

COZ017>023-064>068-280700-
...SOUTHWEST COLORADO...

CITY           SKY/WX    TMP DP  RH WIND       PRES   REMARKS
DURANGO        FAIR      50  24  36 NE8       30.22R
CORTEZ         FAIR      42  30  62 E3        30.22R
PAGOSA SPRINGS FAIR      42  21  42 CALM      30.28R
TELLURIDE      FAIR      42  28  58 SE6       30.38S
WOLF CREEK PAS NOT AVBL
$$

COZ009-010-012-014-032>034-037-058>063-280700-
...CENTRAL COLORADO...

CITY           SKY/WX    TMP DP  RH WIND       PRES   REMARKS
ASPEN          FAIR      35  32  88 SW9       30.37R WCI  28
BUENA VISTA    FAIR      38  29  68 NW9       30.36R
COPPER MTN     NOT AVBL
BERTHOUD PASS  NOT AVBL
COTTONWOOD PAS NOT AVBL
GUNNISON       FAIR      39  25  57 NW3       30.35R
KREMMLING      NOT AVBL
LEADVILLE      FAIR      26  23  88 N5        30.41R WCI  20
SALIDA         FAIR      46  30  54 NW6       30.43R
SUNLIGHT       NOT AVBL
WILKERSON PASS NOT AVBL
$$

COZ069>075-280700-
...SAN LUIS VALLEY/SANGRE DE CRISTO MOUNTAINS...

CITY           SKY/WX    TMP DP  RH WIND       PRES   REMARKS
ALAMOSA        MOCLDY    44  29  55 E5        30.29R
DEL NORTE      NOT AVBL
LA VETA PASS   NOT AVBL
SAGUACHE       NOT AVBL
$$

COZ035-036-038>040-280700-
...NORTHERN COLORADO FRONT RANGE...

CITY           SKY/WX    TMP DP  RH WIND       PRES   REMARKS
DENVER INTL AP FAIR      46  40  79 SW9       30.26S
DMNS CITY PARK   N/A     47  43  86 E8        30.27S
AURORA         PTCLDY    44  40  85 S6        30.28R
FRONT RANGE AP NOT AVBL
ERIE MUNI ARPT NOT AVBL
BOULDER MUN AP NOT AVBL
CENTENNIAL     FAIR      43  39  86 S6        30.28R
BROOMFIELD     NOT AVBL
FORT COLLINS   FAIR      47  41  80 CALM      30.25S
LONGMONT       NOT AVBL
$$

COZ041-046-047-076>085-087-088-280700-
...PIKES PEAK/PALMER DIVIDE AND SOUTHERN FOOTHILLS...

CITY           SKY/WX    TMP DP  RH WIND       PRES   REMARKS
COLO. SPRINGS  FAIR      46  39  76 NW7       30.32R
A. F. ACADEMY  FAIR      39  38  95 N3        30.32R
SCHRIEVER AFB  FAIR      45  34  66 NW12      30.31R
CHEYENNE MTN   FAIR      45  35  67 NW7       30.27R
ELLICOTT       FAIR     N/A N/A N/A CALM      30.29S
FALCON         FAIR      41  34  76 NW7       30.33R
FORT CARSON    FAIR      46  38  73 W8        30.30R
LIMON          FAIR      42  40  92 W8        30.25F
MONUMENT HILL  NOT AVBL
CANON CITY     NOT AVBL
WALSENBURG     CLOUDY    48  45  87 SW7       30.33R
TRINIDAD       FAIR      45  41  86 W8        30.30F
$$

COZ042>045-048>051-090-091-280700-
...NORTHEAST COLORADO...

CITY           SKY/WX    TMP DP  RH WIND       PRES   REMARKS
GREELEY ARPT   FAIR      46  43  89 CALM      30.24S
AKRON          FAIR      46  42  86 W13       30.21S
BURLINGTON     FAIR      49  45  86 NW10      30.18F
WRAY           FAIR      45  43  93 SW7       30.17R
YUMA           NOT AVBL
STERLING       NOT AVBL
HOLYOKE        NOT AVBL
FORT MORGAN    FAIR      43  40  91 W9        30.22S
$$

COZ086-089-092>099-280700-
...SOUTHEAST COLORADO...

CITY           SKY/WX    TMP DP  RH WIND       PRES   REMARKS
PUEBLO         FAIR      51  47  86 W6        30.26S
LA JUNTA       FAIR      51  48  89 W13       30.23R
LAMAR          FAIR      52  49  89 W8        30.17F
SPRINGFIELD      N/A     48  46  93 NW15      30.18R
$$




USA.gov is the U.S. government's official web portal to all federal, state and local government web resources and services.